GFSMW_850_thetae_132.txt.gz
Theta_e
306 305 304 306 305 307 308 309 309 309 310 309 309 309 310 310 310 311 312 312 313 313 315 316 317 319 320 323 326 333 332 331 330 327 326 327 325 332 333 333 335 334 334
308 306 305 305 305 305 305 303 303 303 303 303 303 303 303 303 304 306 306 307 308 309 309 310 310 311 312 314 317 322 329 330 331 331 328 329 327 331 330 331 329 330 331
310 307 306 304 306 307 307 307 306 306 306 305 304 303 301 301 302 302 302 303 304 304 305 305 306 307 309 309 310 312 316 322 327 329 330 329 330 330 332 331 329 329 329
308 307 306 304 303 304 305 305 306 306 306 306 306 305 303 302 301 301 301 301 301 302 302 303 304 304 305 305 306 309 310 312 317 325 328 328 329 330 329 330 330 330 331
308 307 306 306 303 303 304 305 303 302 303 302 301 302 302 300 299 299 300 301 301 301 302 302 302 303 303 304 304 305 306 309 312 314 317 324 326 328 328 327 328 328 328
309 308 306 304 302 300 300 299 299 299 300 300 299 298 297 298 298 297 297 298 300 300 300 301 302 302 303 304 304 304 304 305 307 309 311 314 322 325 327 328 328 328 326
310 308 305 303 300 299 299 298 299 299 299 299 299 297 298 295 294 294 294 293 294 296 297 298 298 300 301 301 302 303 302 303 305 306 308 310 314 321 325 326 327 328 328
308 306 303 301 299 298 298 299 298 298 298 298 297 297 296 293 292 291 291 291 291 292 293 293 294 295 295 297 298 299 300 302 302 304 306 307 308 311 317 324 325 328 327
306 305 301 299 298 297 297 297 298 298 298 298 297 296 295 294 292 292 290 290 290 291 291 291 292 293 295 296 296 297 298 299 300 301 303 305 306 308 310 314 323 325 326
304 302 300 298 297 296 296 297 298 297 297 297 296 295 294 293 291 290 291 291 292 291 291 292 291 291 291 291 293 295 297 297 299 301 303 303 305 306 308 309 313 321 325
304 300 299 296 296 295 295 297 297 296 297 297 296 295 295 293 292 292 292 291 290 289 288 287 288 288 288 289 290 293 295 296 295 297 299 303 304 304 307 309 310 315 321
301 299 298 296 295 294 293 294 295 296 296 296 296 295 295 294 292 292 291 290 288 287 286 287 286 287 287 287 287 288 290 291 293 295 298 300 303 305 305 306 309 311 316
299 297 296 295 294 292 292 292 294 294 294 294 294 293 293 293 292 292 291 291 289 286 286 285 285 286 286 286 287 288 289 290 291 293 294 297 301 303 305 306 307 310 312
298 297 296 294 293 291 291 292 289 288 288 289 289 288 288 289 291 291 291 291 290 289 287 285 284 285 285 285 286 286 286 288 289 291 295 297 297 299 300 303 306 308 311
298 296 294 293 292 291 289 288 286 286 286 286 286 285 285 284 284 285 288 289 288 288 289 289 287 286 286 287 287 285 284 285 287 289 292 294 295 296 298 302 307 308 311
296 293 292 292 290 288 287 285 285 285 285 285 285 285 284 284 284 284 284 283 282 282 284 287 288 288 288 288 289 288 285 284 284 286 288 291 295 296 298 300 304 308 309
293 292 291 290 289 286 285 284 284 284 284 284 284 284 284 284 283 283 283 283 282 282 282 283 283 283 284 288 290 290 288 287 285 284 286 288 291 293 295 296 301 305 307
293 290 289 288 287 285 284 284 283 283 283 283 284 284 283 283 283 283 283 282 282 281 281 282 282 282 282 282 283 286 289 290 289 286 286 288 289 291 293 295 298 299 301
290 290 289 287 285 286 286 284 283 283 283 283 283 283 283 283 282 282 282 281 280 280 280 280 280 281 281 281 282 282 283 283 286 289 288 289 289 291 293 295 294 294 294
290 289 287 286 286 286 288 285 283 283 283 282 282 282 282 282 282 281 281 280 280 279 279 279 279 279 280 280 280 281 281 282 281 282 283 286 288 290 292 294 294 294 293
288 287 286 287 286 287 287 284 283 283 282 282 282 282 282 282 281 281 280 280 279 279 279 279 279 279 279 279 279 280 281 279 279 279 280 280 281 283 285 289 291 291 292
286 286 286 287 287 287 284 283 283 282 282 281 281 281 281 281 280 280 280 280 279 279 279 279 278 278 278 278 278 278 279 279 279 278 278 279 279 280 281 282 282 283 284
286 286 286 286 285 284 283 283 282 282 281 281 281 280 280 280 279 279 280 280 279 279 279 279 278 277 276 277 277 278 278 278 278 277 277 278 279 279 279 279 280 281 281
286 285 285 284 284 284 283 283 282 281 281 281 280 279 279 279 279 280 279 278 278 279 278 277 277 276 276 275 276 276 277 277 278 277 278 278 278 278 278 279 279 279 279
285 285 286 285 284 283 283 282 281 281 280 280 280 279 278 278 278 277 277 277 276 276 276 276 275 275 274 273 273 274 275 276 275 275 275 277 277 277 277 276 276 276 277
285 285 285 284 283 282 282 281 281 281 280 280 279 279 278 278 278 278 276 275 275 274 274 274 274 274 272 272 272 272 272 273 273 274 274 273 273 272 272 272 272 272 273

GFSMW_850_thetae_135.txt.gz
Theta_e
311 310 310 310 310 309 308 307 306 306 305 306 306 307 308 310 309 309 308 308 309 310 310 311 311 312 314 316 316 321 325 329 330 331 331 331 331 331 327 326 325 328 333
311 310 310 310 308 307 307 307 307 307 307 306 305 306 306 306 307 306 305 305 304 305 305 306 307 308 309 310 313 317 320 320 324 328 328 330 331 332 330 327 326 326 329
313 311 310 309 308 307 306 306 306 306 307 307 306 306 306 306 306 305 305 303 303 302 302 302 303 304 305 308 310 312 314 317 319 321 325 327 327 328 330 330 328 327 325
314 312 311 310 308 307 306 304 303 302 301 302 303 303 304 304 303 303 303 303 303 302 302 302 302 301 302 303 305 308 309 311 314 316 317 322 325 327 327 327 332 333 332
313 312 311 310 306 305 304 303 302 301 301 300 301 301 301 301 301 301 300 301 301 301 301 301 301 301 301 301 302 302 303 304 306 310 314 317 318 321 326 327 328 328 328
313 312 310 308 305 303 303 302 302 301 300 300 300 300 299 299 299 298 298 298 298 298 298 298 298 299 300 300 301 301 301 302 303 304 305 310 314 315 319 324 325 326 326
313 312 311 308 304 303 302 301 300 300 300 300 299 299 298 297 296 295 294 294 294 294 293 294 294 296 295 296 297 299 300 301 300 301 303 304 307 311 314 317 319 322 325
314 311 309 306 303 302 301 300 299 298 299 299 298 298 297 295 294 293 292 292 291 291 291 291 291 292 292 292 294 295 296 297 297 298 300 301 303 304 308 312 316 318 319
312 311 307 304 302 301 300 299 298 298 298 298 297 296 294 294 292 291 291 290 289 289 290 290 290 290 290 290 291 292 294 295 297 299 299 299 300 302 305 306 310 314 316
310 309 306 303 302 300 299 298 297 297 296 296 295 295 295 294 292 291 291 291 289 288 289 289 289 289 289 289 289 290 291 291 293 294 295 297 299 300 303 305 306 309 313
309 308 305 302 301 299 298 297 296 297 297 295 295 295 295 294 294 293 291 291 289 287 287 287 288 288 288 288 288 289 290 289 291 292 293 294 296 299 300 302 304 306 309
311 307 304 302 300 299 298 297 296 295 296 295 293 293 293 293 293 292 291 291 290 289 287 287 287 286 286 286 286 287 287 287 287 289 291 292 294 296 299 301 303 304 306
309 304 302 301 300 297 296 295 294 293 292 291 291 289 288 288 289 291 291 291 291 290 288 287 286 286 286 285 285 286 286 285 286 286 288 290 293 295 297 299 300 303 305
306 303 302 300 298 296 294 292 290 289 289 288 287 287 286 286 286 286 287 287 288 288 288 286 285 285 287 288 288 285 284 284 284 285 287 288 290 293 295 296 299 301 304
305 303 301 299 296 294 292 290 289 288 287 286 286 286 285 285 285 285 285 285 285 284 283 283 283 284 287 287 288 286 284 283 283 284 285 286 288 290 291 295 296 298 301
304 301 298 297 294 291 290 288 286 286 285 285 285 285 285 284 284 284 284 283 283 283 282 282 281 281 281 286 289 288 287 286 285 285 285 285 288 289 290 292 295 297 301
302 297 295 293 291 290 288 287 285 285 285 284 284 284 284 284 283 284 283 283 282 282 281 281 281 281 281 282 282 284 286 287 286 286 287 286 286 288 288 289 291 293 296
297 294 293 291 290 288 286 284 284 284 284 284 284 283 283 283 283 283 283 282 282 281 281 280 280 280 280 281 282 282 282 281 283 285 287 286 287 287 288 288 289 290 291
294 293 291 290 288 286 285 284 284 283 283 283 283 283 282 282 282 282 282 282 282 281 281 279 279 279 280 280 281 281 281 281 281 280 281 282 287 289 290 291 290 289 289
293 291 290 288 286 286 286 285 283 283 283 283 283 283 282 282 282 282 282 281 281 281 281 280 279 278 278 279 280 280 280 279 280 280 280 280 280 282 284 289 289 290 288
290 289 287 287 287 287 286 284 283 283 283 282 282 282 282 282 282 281 281 281 281 281 281 280 279 278 277 278 278 278 279 278 278 278 279 278 278 279 280 281 281 281 284
288 287 286 286 286 287 285 283 283 282 282 281 282 282 282 281 281 282 282 281 281 281 281 281 280 278 277 277 277 277 277 277 276 277 277 277 278 278 279 279 280 280 281
288 288 287 286 286 285 284 283 283 282 281 281 281 281 281 281 281 281 281 282 281 281 281 280 279 278 277 276 276 276 275 276 276 276 275 276 276 277 277 278 279 279 279
288 288 287 286 287 286 285 283 282 282 281 281 281 280 280 280 281 281 279 279 279 279 279 279 277 277 276 275 275 275 275 275 276 276 276 275 275 275 275 275 275 275 275
287 287 287 287 287 286 285 284 284 283 282 281 281 280 280 280 279 278 278 277 275 275 276 276 276 274 274 273 273 274 274 274 275 276 276 275 275 274 274 274 274 273 274
287 287 287 287 285 285 284 284 283 282 281 281 281 281 281 280 280 280 279 278 277 275 274 274 273 273 272 272 272 273 273 273 274 275 274 274 274 274 274 273 273 273 272

GFSMW_850_thetae_141.txt.gz
Theta_e
314 313 312 312 312 311 309 310 310 310 309 311 310 309 308 307 308 307 307 306 307 306 306 305 304 303 303 304 305 307 309 311 314 315 315 318 327 329 328 327 329 330 328
312 312 312 312 311 310 309 309 309 306 303 304 304 306 307 307 307 306 305 304 304 304 305 305 306 306 305 302 302 303 304 307 312 316 317 317 315 315 314 318 320 322 324
312 312 312 311 311 310 309 308 305 301 301 301 301 301 302 302 301 301 302 301 301 301 301 302 302 303 303 303 302 301 302 302 304 313 313 317 321 321 316 318 322 327 329
312 313 312 311 311 309 305 302 301 301 301 301 301 301 301 302 302 302 302 302 301 301 301 300 300 300 300 300 300 299 300 301 301 302 311 312 312 315 315 314 313 316 320
313 313 311 311 310 307 304 303 302 301 301 301 301 301 301 301 302 302 302 302 301 300 300 300 300 299 298 296 295 296 296 296 298 300 301 303 310 312 310 313 314 312 311
313 312 312 311 308 306 303 302 302 301 301 301 301 301 301 301 301 302 302 301 301 300 299 299 297 296 295 294 293 292 293 293 294 296 297 299 300 302 303 306 311 311 310
314 312 311 308 306 305 303 302 301 301 301 301 301 301 301 301 301 300 300 300 299 298 297 295 293 291 290 290 290 290 291 291 292 293 294 295 298 298 299 301 302 303 304
313 313 311 307 305 304 303 302 301 300 300 301 301 300 300 300 300 299 299 299 298 297 295 294 293 291 291 290 288 289 289 289 290 290 291 292 293 295 297 298 298 300 301
314 313 311 307 305 304 303 301 300 299 299 300 300 300 299 299 299 298 298 298 297 296 295 294 294 293 293 291 288 288 288 288 288 288 288 289 291 292 294 295 297 298 300
314 312 309 306 304 304 303 301 300 299 299 298 298 298 297 296 296 296 296 296 296 295 295 294 294 294 294 293 291 289 288 287 286 286 286 286 287 288 291 293 294 296 297
314 309 308 305 304 302 302 300 299 298 297 297 296 294 292 291 290 291 292 293 293 293 293 292 293 293 293 293 293 291 290 288 286 285 285 285 285 286 288 291 292 294 295
315 312 307 306 304 302 301 299 298 297 295 295 294 292 290 289 288 288 288 288 287 288 288 287 287 287 288 290 291 290 289 288 287 285 284 283 284 286 287 289 290 292 294
313 309 307 303 301 301 299 298 297 295 294 293 292 290 289 288 287 287 287 286 285 285 285 285 285 285 284 285 287 287 287 286 287 285 285 284 283 284 286 287 288 289 292
312 310 305 302 300 299 298 297 295 293 292 291 290 288 287 286 286 286 286 285 284 284 284 284 284 284 284 284 283 283 283 285 286 285 285 284 283 284 285 285 286 287 289
309 306 303 302 301 297 296 296 293 291 291 290 288 287 286 285 285 285 285 284 284 283 283 283 283 283 283 283 282 281 281 281 282 284 286 285 285 285 285 285 284 285 286
308 306 304 301 298 296 295 294 292 291 290 287 285 285 285 285 285 284 284 283 283 282 282 282 282 282 282 281 281 281 280 280 281 281 280 284 284 285 286 286 285 284 284
306 304 302 299 298 296 295 293 292 290 287 285 285 284 284 284 284 283 283 283 282 282 282 282 281 282 281 281 280 279 279 280 280 280 279 280 280 285 286 286 286 285 284
305 302 300 298 296 295 293 294 291 287 284 284 284 284 283 283 283 283 283 283 282 282 281 281 281 280 280 280 279 279 279 278 278 279 278 278 279 279 280 285 286 285 284
304 301 299 298 296 294 293 291 286 284 284 284 283 283 283 282 282 282 282 282 282 282 281 280 280 280 280 279 279 279 279 278 278 278 278 277 277 278 280 281 281 281 284
299 298 298 297 295 293 290 286 284 284 283 283 283 282 282 282 282 282 282 282 282 281 281 281 280 279 279 278 278 278 278 278 277 277 277 276 276 276 278 279 278 279 279
298 297 296 294 292 290 286 284 284 283 283 283 283 282 282 282 282 282 282 282 281 281 281 281 280 279 278 278 277 277 277 277 277 277 276 276 276 276 275 276 276 276 277
294 293 293 291 289 287 286 284 283 283 282 282 282 282 282 283 283 282 282 282 281 281 280 279 279 278 277 277 276 277 277 276 276 276 275 275 274 274 274 274 275 275 276
292 291 291 289 287 288 288 286 283 282 282 282 282 282 282 281 282 282 282 282 281 280 280 278 278 277 276 276 275 275 275 275 275 274 274 273 274 274 274 273 274 275 275
289 290 289 287 287 287 287 283 282 282 281 281 282 282 282 282 280 278 278 278 278 278 278 277 277 276 276 275 275 274 274 274 274 274 274 274 274 274 273 273 273 273 273
289 289 288 287 287 286 285 283 283 282 282 282 281 280 281 280 279 280 280 279 278 277 277 276 276 276 276 275 275 274 274 274 274 274 275 275 274 273 273 272 271 271 271
289 288 287 287 286 286 285 284 283 283 282 281 281 281 281 281 281 280 280 279 278 278 276 275 275 274 273 273 274 273 273 274 274 274 273 272 272 271 271 271 271 270 270

GFSMW_850_thetae_144.txt.gz
Theta_e
312 313 312 312 312 312 312 310 310 310 310 309 308 308 308 307 307 306 304 303 302 302 303 304 305 306 307 306 304 303 304 306 309 310 311 312 314 320 326 327 327 327 327
312 312 312 312 312 311 311 310 310 306 302 302 302 303 303 302 302 301 301 302 302 302 302 302 301 301 301 302 304 305 305 303 304 307 311 312 313 313 313 316 320 323 323
312 312 312 312 310 310 310 309 306 301 301 301 301 301 301 301 301 301 301 302 302 302 302 301 301 301 301 301 300 301 302 304 303 304 307 312 314 315 314 316 319 320 322
313 312 312 311 310 309 308 304 301 301 301 301 301 302 302 302 301 301 301 301 301 301 301 301 301 300 300 300 299 299 299 300 301 302 304 305 305 306 309 310 311 314 321
312 312 312 311 310 308 305 302 301 301 301 301 301 301 302 301 301 301 301 302 301 301 300 299 299 298 298 296 295 294 294 294 296 297 298 301 302 305 303 306 309 309 310
312 312 311 310 308 306 305 302 301 301 301 301 301 301 301 301 301 301 301 301 301 300 299 298 297 296 295 294 292 290 291 291 292 294 295 295 296 298 299 300 303 304 307
312 311 309 309 307 306 304 303 302 301 301 300 300 301 301 300 300 300 300 300 300 299 298 297 296 295 294 293 292 289 289 289 290 290 292 294 294 294 296 297 297 298 300
311 310 310 308 307 306 307 304 301 300 300 300 300 300 300 300 299 299 299 299 299 298 296 296 296 295 294 293 292 291 290 289 289 289 289 290 292 294 294 294 294 296 297
309 307 306 306 306 306 306 304 301 300 300 299 299 299 299 298 297 297 297 297 297 296 296 295 295 295 294 294 293 293 291 290 289 287 287 286 287 289 291 293 293 293 294
311 310 307 306 306 305 305 303 301 300 299 299 298 298 295 293 292 292 292 293 293 293 293 292 292 292 292 293 294 293 292 292 291 288 287 286 286 286 287 288 290 292 292
314 313 313 307 306 307 306 304 302 300 299 298 297 296 293 291 289 289 289 288 288 289 288 287 286 287 288 289 290 291 291 292 291 290 289 287 286 286 287 288 289 289 290
315 314 310 306 306 305 303 303 301 299 298 297 296 294 291 289 288 288 288 287 286 286 286 286 286 285 285 286 286 286 287 289 291 290 289 288 287 286 285 286 286 287 288
314 311 309 308 306 303 302 302 302 300 297 295 294 292 289 288 287 287 287 286 285 285 285 285 285 285 285 285 284 284 284 285 287 289 288 288 285 285 284 284 285 286 286
313 310 308 305 303 302 302 303 302 299 296 294 293 290 288 286 286 287 286 285 285 284 284 284 284 284 284 283 283 282 282 282 282 284 286 285 284 284 284 284 284 285 286
310 308 307 304 302 302 301 298 298 297 294 294 291 288 286 286 286 286 285 284 283 283 283 283 283 283 283 283 282 282 282 282 281 281 281 285 285 285 284 284 284 285 285
310 307 305 304 303 301 299 298 297 295 295 292 288 286 286 285 284 284 284 282 282 282 282 282 282 283 282 281 281 281 281 281 281 281 280 280 280 284 285 285 284 284 285
308 306 304 304 302 300 299 297 296 294 293 289 286 285 284 284 284 283 282 282 281 281 281 281 281 282 281 280 280 279 280 280 280 280 279 279 279 279 281 284 284 285 285
307 305 304 302 301 298 296 296 294 293 290 287 285 284 284 283 283 282 282 282 281 281 280 280 280 281 280 280 279 279 279 279 279 279 278 278 278 278 279 279 280 282 284
307 306 304 302 298 296 296 295 293 290 287 285 284 283 283 283 282 282 282 282 282 282 281 280 279 279 280 279 279 279 279 279 278 278 278 277 277 276 278 279 279 279 279
306 305 302 298 296 296 294 292 292 288 285 284 283 283 282 282 282 282 282 282 282 282 281 280 279 278 279 278 278 278 279 279 278 277 277 276 276 275 276 278 278 278 278
302 299 297 297 298 296 293 291 288 285 284 284 283 282 282 282 282 282 282 281 281 281 280 279 277 278 278 278 277 276 278 277 276 277 276 275 274 274 274 276 276 275 276
296 295 296 295 294 293 290 287 285 284 284 283 282 282 282 282 282 282 282 281 281 281 279 277 278 278 278 277 276 276 276 276 276 276 275 275 274 274 272 275 274 275 276
295 295 295 293 291 289 286 286 284 284 282 282 282 282 282 282 282 282 282 282 281 279 278 277 277 277 277 277 276 276 276 276 276 275 274 274 274 274 274 273 273 275 275
293 292 292 291 290 288 288 286 286 282 282 282 282 282 282 281 281 281 280 279 278 278 277 277 277 276 276 276 276 276 276 275 274 274 274 274 274 274 273 273 273 273 272
291 290 290 289 288 287 287 285 282 282 281 282 282 282 282 279 279 279 278 278 277 277 277 277 276 276 276 275 274 274 275 275 274 274 275 275 274 274 273 272 272 272 272
290 289 288 288 287 287 286 283 282 282 282 282 281 281 281 279 280 280 280 279 278 276 276 276 276 275 275 275 275 275 275 275 274 275 275 274 273 273 272 272 271 271 271

GFSMW_850_thetae_147.txt.gz
Theta_e
313 313 312 312 312 312 312 311 311 310 309 310 310 309 308 304 302 301 301 301 301 302 302 302 302 302 302 302 302 303 307 306 304 305 308 310 311 312 313 323 326 326 325
312 312 312 312 311 311 310 309 308 308 308 308 307 304 302 301 301 301 301 301 301 301 302 302 302 303 303 303 302 302 302 302 305 304 304 307 311 311 312 313 316 326 329
312 311 311 311 311 310 309 307 302 301 301 301 301 302 301 301 301 301 301 301 301 302 302 302 303 303 303 303 303 302 302 301 301 301 303 306 308 310 312 314 319 320 322
311 311 311 310 310 309 308 303 301 301 301 301 301 301 301 301 301 301 301 301 301 301 301 301 301 301 300 300 301 301 301 301 300 299 300 300 300 303 306 310 312 314 317
311 311 310 310 309 308 305 301 301 301 301 301 301 301 301 301 301 300 300 300 300 300 300 299 299 299 298 298 297 297 298 298 296 294 295 297 299 301 300 302 306 309 308
311 311 309 308 308 306 304 302 301 301 301 300 301 301 301 300 300 299 299 300 299 299 298 298 298 298 297 297 296 295 293 294 293 292 292 293 293 295 295 296 298 298 301
311 310 309 309 308 307 305 303 301 301 300 300 301 301 300 300 299 299 299 299 298 298 298 296 297 297 297 296 295 295 294 293 293 293 292 291 291 292 292 293 294 294 295
310 310 310 310 308 307 305 303 302 301 300 300 301 300 300 299 298 298 297 297 297 297 296 295 295 295 295 295 295 295 294 293 291 291 292 291 290 289 290 289 289 291 292
310 311 311 311 310 309 308 310 307 305 302 301 300 300 299 297 295 294 294 293 293 293 293 292 291 291 291 292 293 294 294 293 292 291 290 290 290 289 288 288 288 288 289
311 312 311 309 307 307 308 308 306 304 302 301 300 299 297 294 293 292 291 290 290 290 289 287 287 287 288 288 289 290 290 292 292 291 290 289 289 288 288 288 287 288 289
313 312 310 308 307 306 306 305 304 301 301 301 300 299 296 293 292 290 289 289 288 287 287 286 285 286 286 286 286 286 287 288 290 291 290 290 288 288 288 288 286 287 287
314 313 311 307 306 305 305 304 303 302 301 300 298 296 295 292 290 288 288 287 287 286 286 285 284 285 285 285 285 285 285 285 286 288 289 290 289 288 288 288 286 286 286
313 310 308 307 305 304 304 304 304 305 300 297 296 296 293 290 288 287 287 287 286 285 284 284 284 285 284 284 284 284 284 284 284 284 286 287 288 287 287 287 286 285 285
314 312 309 307 304 304 304 302 304 304 300 298 295 294 291 288 287 287 286 286 285 284 284 284 284 284 283 283 282 283 283 283 283 283 283 285 286 286 286 286 285 285 285
314 313 309 306 304 303 302 301 302 300 298 295 294 293 289 287 286 286 285 285 284 283 283 283 283 283 283 281 281 282 282 282 282 281 282 281 283 285 284 284 284 284 284
312 311 310 307 304 303 302 301 300 299 295 293 293 290 287 286 285 285 284 284 283 283 282 282 282 282 282 281 280 280 281 281 281 281 281 280 281 280 282 284 283 283 283
311 311 309 307 305 303 302 301 299 298 293 293 293 288 286 284 284 284 283 283 282 282 281 281 281 282 281 280 280 279 280 280 280 280 280 279 280 280 279 280 282 283 283
311 309 307 305 303 302 301 299 299 294 293 294 290 286 285 284 284 283 283 283 282 282 280 280 280 280 280 280 279 278 279 279 279 279 279 278 279 278 278 278 279 279 280
311 309 307 305 304 302 300 298 295 293 293 292 287 285 284 283 283 283 283 282 282 282 281 279 279 279 280 278 278 278 278 278 278 278 278 276 277 275 277 278 278 278 278
308 307 306 304 303 300 298 294 295 293 291 287 285 283 283 282 282 282 282 282 282 282 281 279 278 278 279 278 278 277 277 278 278 277 277 275 275 274 276 277 277 277 277
305 305 303 302 301 299 294 295 294 292 287 284 283 283 282 282 282 282 282 282 282 281 280 278 278 277 278 277 277 277 276 276 277 277 276 276 274 273 276 276 276 275 276
302 302 301 299 296 295 295 295 292 287 285 283 283 282 282 282 282 282 282 282 281 281 279 277 277 277 277 276 276 275 276 275 275 276 275 275 275 276 276 275 275 275 275
299 298 297 295 293 294 294 292 287 285 283 284 283 282 282 282 282 282 282 282 281 280 277 276 276 276 277 276 275 276 276 275 275 275 274 274 274 274 275 274 274 275 275
294 294 293 294 294 292 290 286 286 284 285 283 282 282 282 282 282 282 281 281 280 279 276 276 276 276 276 276 276 275 275 275 274 274 274 274 274 274 273 274 273 273 273
294 294 294 293 292 290 288 285 284 286 283 282 282 282 282 282 282 281 280 279 277 276 276 276 276 275 275 275 275 276 275 274 274 274 274 274 274 274 273 273 272 272 272
293 292 292 291 290 289 288 287 286 283 282 282 282 282 282 279 278 278 278 277 275 275 276 275 275 275 274 274 274 275 274 274 274 274 275 274 274 274 273 273 272 272 272